Date String (YYYY-MM-DD hh:mm:ss) UTC,Instrument flags,Ambient pressure (hPa),Sample flow (lpm),Bypass flow (lpm),Sample temperature (°C),Ambient temperature (°C),ASC tube jacket temperature (°C),LED temperature (°C),Box temperature (°C),Sample RH (%),Span deviation,Mass concentration (μg/m³),Mass concentration (μg/m³),Mass concentration (μg/m³)
DateTimeUTC,F1_M11,P_M11,Q1_M11,Q2_M11,T1_M11,T2_M11,T3_M11,T4_M11,T5_M11,U1_M11,ZSPAN_M11,X0_M11,X2_M11,X1_M11
2023-01-28 11:00:00,,0816.1,5.00,0.00,22.4,20.9,00.0,31.2,24.1,10.6,0000.0,0008.91,0004.43,0004.14
2023-01-28 11:01:00,,0816.1,5.00,0.00,22.4,20.8,00.0,31.2,24.1,10.6,0000.0,0008.80,0004.42,0004.15
2023-01-28 11:02:00,,0816.1,5.01,0.00,22.3,20.8,00.0,31.2,24.1,10.6,0000.0,0008.31,0004.41,0004.16
2023-01-28 11:03:00,,0816.1,5.00,0.00,22.3,20.8,00.0,31.2,24.1,10.6,0000.0,0008.29,0004.45,0004.16
2023-01-28 11:04:00,,0816.1,4.99,0.00,22.3,20.8,00.0,31.2,24.1,10.6,0000.0,0008.41,0004.46,0004.16
2023-01-28 11:05:00,,0816.1,5.00,0.00,22.3,20.8,00.0,31.2,24.1,10.6,0000.0,0008.42,0004.47,0004.16
2023-01-28 11:06:00,,0816.1,5.01,0.00,22.3,20.8,00.0,31.2,24.0,10.6,0000.0,0008.28,0004.46,0004.15
2023-01-28 11:07:00,,0816.1,5.01,0.00,22.3,20.7,00.0,31.2,24.0,10.6,0000.0,0007.88,0004.41,0004.13
2023-01-28 11:08:00,,0816.2,5.03,0.00,22.3,20.7,00.0,31.2,24.0,10.6,0000.0,0007.79,0004.40,0004.12
2023-01-28 11:09:00,,0816.1,4.99,0.00,22.2,20.7,00.0,31.2,23.9,10.6,0000.0,0007.76,0004.38,0004.11
2023-01-28 11:10:00,,0816.1,4.99,0.00,22.2,20.6,00.0,31.2,23.9,10.7,0000.0,0007.75,0004.38,0004.10
2023-01-28 11:11:00,,0816.0,5.02,0.00,22.2,21.0,00.0,31.1,24.0,10.7,0000.0,0007.64,0004.34,0004.07
2023-01-28 11:12:00,,0816.1,5.01,0.00,22.3,22.0,00.0,31.1,24.3,10.6,0000.0,0007.60,0004.32,0004.06
2023-01-28 11:13:00,,0816.1,5.01,0.00,22.4,22.8,00.0,31.1,24.5,10.5,0000.0,0007.55,0004.30,0004.04
2023-01-28 11:14:00,,0816.0,4.97,0.00,22.5,22.6,00.0,31.2,24.5,10.5,0000.0,0007.46,0004.26,0004.01
2023-01-28 11:15:00,,0816.1,5.01,0.00,22.5,22.2,00.0,31.2,24.4,10.5,0000.0,0007.36,0004.22,0003.99
2023-01-28 11:16:00,,0816.1,5.01,0.00,22.5,21.9,00.0,31.2,24.4,10.5,0000.0,0007.30,0004.19,0003.97
2023-01-28 11:17:00,,0816.2,4.99,0.00,22.5,21.6,00.0,31.3,24.3,10.5,0000.0,0007.21,0004.17,0003.95
2023-01-28 11:18:00,,0816.2,5.02,0.00,22.5,21.5,00.0,31.3,24.3,10.5,0000.0,0008.03,0004.20,0003.95
2023-01-28 11:19:00,,0816.3,5.00,0.00,22.5,21.3,00.0,31.3,24.3,10.5,0000.0,0008.08,0004.20,0003.96
2023-01-28 11:20:00,,0816.3,4.99,0.00,22.5,21.2,00.0,31.3,24.2,10.5,0000.0,0008.12,0004.22,0003.97
2023-01-28 11:21:00,,0816.3,5.01,0.00,22.5,21.1,00.0,31.3,24.2,10.5,0000.0,0008.13,0004.22,0003.97
2023-01-28 11:22:00,,0816.3,5.00,0.00,22.4,21.0,00.0,31.3,24.2,10.6,0000.0,0008.27,0004.24,0003.99
2023-01-28 11:23:00,,0816.3,4.98,0.00,22.4,20.9,00.0,31.3,24.1,10.6,0000.0,0008.31,0004.26,0004.01
2023-01-28 11:24:00,,0816.3,5.00,0.00,22.4,20.7,00.0,31.3,24.0,10.6,0000.0,0008.34,0004.28,0004.03
2023-01-28 11:25:00,,0816.3,5.00,0.00,22.3,20.5,00.0,31.3,23.9,10.7,0000.0,0008.31,0004.28,0004.05
2023-01-28 11:26:00,,0816.3,4.99,0.00,22.2,20.3,00.0,31.2,23.9,10.7,0000.0,0008.52,0004.32,0004.08
2023-01-28 11:27:00,,0816.3,4.97,0.00,22.2,20.2,00.0,31.2,23.8,10.8,0000.0,0008.59,0004.35,0004.11
2023-01-28 11:28:00,,0816.4,5.01,0.00,22.1,20.1,00.0,31.2,23.7,10.8,0000.0,0008.58,0004.36,0004.12
2023-01-28 11:29:00,,0816.4,5.01,0.00,22.1,19.9,00.0,31.2,23.7,10.8,0000.0,0007.94,0004.34,0004.13
2023-01-28 11:30:00,,0816.4,5.01,0.00,22.0,20.2,00.0,31.1,23.7,10.9,0000.0,0007.79,0004.32,0004.12
2023-01-28 11:31:00,,0816.4,5.02,0.00,22.1,21.4,00.0,31.1,24.0,10.8,0000.0,0007.82,0004.32,0004.12
2023-01-28 11:32:00,,0816.4,5.00,0.00,22.2,22.4,00.0,31.1,24.2,10.8,0000.0,0007.82,0004.31,0004.11
2023-01-28 11:33:00,,0816.4,4.99,0.00,22.3,22.4,00.0,31.1,24.3,10.7,0000.0,0007.88,0004.31,0004.09
2023-01-28 11:34:00,,0816.3,4.99,0.00,22.3,21.9,00.0,31.1,24.2,10.7,0000.0,0007.92,0004.30,0004.07
2023-01-28 11:35:00,,0816.3,5.01,0.00,22.3,21.6,00.0,31.1,24.1,10.7,0000.0,0008.18,0004.29,0004.06
2023-01-28 11:36:00,,0816.3,5.01,0.00,22.3,21.3,00.0,31.2,24.1,10.7,0000.0,0008.17,0004.28,0004.05
2023-01-28 11:37:00,,0816.4,5.00,0.00,22.3,21.2,00.0,31.2,24.1,10.7,0000.0,0007.89,0004.24,0004.04
2023-01-28 11:38:00,,0816.4,5.02,0.00,22.3,21.0,00.0,31.2,24.1,10.7,0000.0,0007.99,0004.23,0004.02
2023-01-28 11:39:00,,0816.5,4.99,0.00,22.3,20.9,00.0,31.2,24.0,10.7,0000.0,0008.30,0004.25,0004.03
2023-01-28 11:40:00,,0816.5,4.99,0.00,22.2,20.7,00.0,31.2,23.9,10.7,0000.0,0008.33,0004.27,0004.04
2023-01-28 11:41:00,,0816.6,5.02,0.00,22.2,20.6,00.0,31.1,23.9,10.7,0000.0,0009.10,0004.29,0004.05
2023-01-28 11:42:00,,0816.4,4.98,0.00,22.2,20.4,00.0,31.1,23.8,10.8,0000.0,0009.13,0004.27,0004.04
2023-01-28 11:43:00,,0816.6,5.01,0.00,22.1,20.2,00.0,31.1,23.7,10.8,0000.0,0009.15,0004.28,0004.05
2023-01-28 11:44:00,,0816.5,5.01,0.00,22.0,20.1,00.0,31.1,23.6,10.9,0000.0,0009.27,0004.28,0004.06
2023-01-28 11:45:00,,0816.4,4.99,0.00,22.0,20.0,00.0,31.1,23.6,10.9,0000.0,0009.53,0004.30,0004.05
2023-01-28 11:46:00,,0816.3,4.99,0.00,22.0,20.0,00.0,31.0,23.6,10.9,0000.0,0009.30,0004.27,0004.04
2023-01-28 11:47:00,,0816.3,4.99,0.00,22.0,20.1,00.0,31.0,23.7,10.9,0000.0,0009.30,0004.28,0004.04
2023-01-28 11:48:00,,0816.3,5.00,0.00,22.0,20.2,00.0,31.0,23.7,10.9,0000.0,0009.35,0004.29,0004.03
2023-01-28 11:49:00,,0816.4,5.01,0.00,22.0,20.9,00.0,31.0,23.9,10.9,0000.0,0009.24,0004.29,0004.03
2023-01-28 11:50:00,,0816.5,4.98,0.00,22.1,22.0,00.0,30.9,24.1,10.9,0000.0,0009.10,0004.30,0004.02
2023-01-28 11:51:00,,0816.5,5.01,0.00,22.3,22.8,00.0,31.0,24.3,10.8,0000.0,0009.65,0004.30,0004.01
2023-01-28 11:52:00,,0816.5,4.99,0.00,22.3,22.5,00.0,31.0,24.3,10.7,0000.0,0009.18,0004.32,0004.01
2023-01-28 11:53:00,,0816.6,5.01,0.00,22.3,22.1,00.0,31.1,24.3,10.7,0000.0,0008.97,0004.34,0004.02
2023-01-28 11:54:00,,0816.7,5.00,0.00,22.3,21.8,00.0,31.1,24.2,10.7,0000.0,0009.35,0004.35,0004.02
2023-01-28 11:55:00,,0816.7,5.00,0.00,22.3,21.5,00.0,31.1,24.2,10.7,0000.0,0009.08,0004.34,0004.03
2023-01-28 11:56:00,,0816.6,5.00,0.00,22.3,21.3,00.0,31.1,24.1,10.7,0000.0,0008.80,0004.32,0004.03
2023-01-28 11:57:00,,0816.5,5.00,0.00,22.3,21.0,00.0,31.1,24.1,10.7,0000.0,0008.68,0004.35,0004.04
2023-01-28 11:58:00,,0816.4,5.01,0.00,22.3,20.8,00.0,31.1,24.0,10.7,0000.0,0008.72,0004.36,0004.05
2023-01-28 11:59:00,,0816.3,5.02,0.00,22.3,20.7,00.0,31.1,24.0,10.7,0000.0,0008.69,0004.36,0004.05
